Location: Les Granges
(44.8782°N, 2.4441°E)
Time: 11:53:04
(UTC+00:00)

Daily predictions for brighter satellites

Satellite Brightness Start Highest point End
(mag) Time Altitude Azimuth Time Altitude Azimuth Time Altitude Azimuth
Cosmos 2366 rocket 4.1 19:04:04 10° N 19:10:29 86° E 19:16:50 10° S
Resurs 1-3 3.6 19:07:02 10° SSE 19:11:23 89° WSW 19:15:46 10° NNW
YAOGAN 1 4.3 19:09:05 10° SSW 19:13:00 35° W 19:16:59 10° NNW
Okean-O 4.0 19:11:51 10° ESE 19:15:13 22° ENE 19:18:37 10° NNE
ADEOS Rocket 4.2 19:11:22 10° SSW 19:16:31 41° W 19:21:45 10° NNW
Cosmos 1975 Rocket 3.0 19:12:17 10° N 19:16:37 70° E 19:20:54 10° SSE
Cosmos 1953 3.7 19:13:06 10° SSW 19:16:44 42° WNW 19:20:24 10° N
CZ-4B R/B 3.3 19:11:32 10° SSE 19:17:07 70° ENE 19:22:40 10° N
Nadezhda 3 Rocket 4.4 19:15:36 10° SSE 19:21:16 41° E 19:26:59 10° NNE
USA 186 1.6 19:20:39 10° SSE 19:23:40 66° ENE 19:26:39 10° N
Cosmos 1821 Rocket 4.0 19:18:04 10° N 19:24:12 63° E 19:30:13 10° SSE
SL-27 R/B 1.9 19:21:50 10° NNW 19:24:43 65° ENE 19:27:33 10° SSE
Cosmos 2218 Rocket 4.3 19:18:21 10° N 19:24:45 78° W 19:31:04 10° S
BREEZE-M R/B 3.4 19:22:33 10° WNW 19:25:03 29° N 19:27:15 10° ENE
SPOT 1/Viking Rocket 3.6 19:20:28 10° SSE 19:25:42 87° WSW 19:30:57 10° NNW
Cosmos 1825 4.2 19:22:59 10° NNW 19:26:00 28° W 19:28:58 10° SSW
USA 267 3.6 19:21:44 10° NE 19:28:17 74° NNW 19:34:48 10° WSW
Okean O Rocket 1.7 19:25:33 10° SSE 19:29:48 56° ENE 19:34:06 10° N
Feng Yun 1-1 Rocket 4.3 19:25:11 10° SSE 19:30:42 77° ENE 19:36:25 10° NNW
Cosmos 1782 Rocket 4.4 19:29:15 10° SSW 19:33:32 54° WNW 19:37:53 10° N
CZ-4 R/B 2.1 19:31:04 10° S 19:34:52 51° W 19:38:40 10° NNW
Atlas Centaur 2 3.8 19:33:22 10° SSW 19:35:18 12° S 19:37:05 10° SSE
Cosmos 1486 Rocket 4.0 19:30:32 10° NNW 19:35:44 64° ENE 19:40:53 10° SSE
Cosmos 1536 Rocket 4.3 19:38:33 10° N 19:42:39 36° ENE 19:45:49 15° SE
SJ 16-02 3.4 19:40:06 10° NW 19:43:44 27° W 19:47:22 10° SSW
Resurs 01 Rocket 1.6 19:40:08 10° SSE 19:44:32 83° ENE 19:48:59 10° NNW
DELTA 2 DEB (DPAF) 4.0 19:42:57 10° NNE 19:47:13 87° WNW 19:51:27 10° SSW
NOSS 3-1 (A) 2.9 19:45:25 10° SSW 19:50:15 79° SE 19:56:05 10° NE
ERS-1 Rocket 4.3 19:51:26 16° ESE 19:53:58 24° ENE 19:57:56 10° NNE
Tiangong -1.0 19:54:19 10° SW 19:56:55 25° SSE 19:57:17 24° SSE
USA 229 DEB 3.9 19:53:47 10° S 19:59:14 36° ESE 20:05:08 10° NE
USA 229 3.9 19:53:53 10° S 19:59:20 36° ESE 20:05:14 10° NE
Cosmos 2151 Rocket 3.5 19:57:09 10° S 20:01:28 62° E 20:05:51 10° NNE
Cosmos 1934 Rocket 4.2 19:55:37 10° N 20:01:39 53° ENE 20:06:25 17° SSE
USA 234 3.3 19:58:35 17° SE 20:03:53 75° SW 20:10:27 10° NW
USA 281 3.2 19:59:01 15° SE 20:04:40 77° ENE 20:11:15 10° NNW
ATLAS CENTAUR R/B 3.6 20:06:37 10° N 20:08:07 12° NE 20:09:38 10° ENE
Cosmos 2227 Rocket 3.5 20:04:51 10° N 20:09:33 26° NE 20:12:21 18° E
Iridium 2 3.2 20:11:05 10° N 20:13:57 48° E 20:14:16 46° ESE
SL-4 R/B 3.1 20:12:45 10° NW 20:16:01 31° N 20:17:57 18° ENE
Landsat 4 4.2 20:17:01 33° E 20:17:37 36° ENE 20:20:53 10° N
Cosmos 371 Rocket 3.2 20:13:28 10° NNW 20:18:18 89° ENE 20:21:07 25° SSE
MetOp-B 4.2 20:15:38 24° SE 20:18:51 61° ENE 20:24:09 10° N
Cosmos 1697 Rocket 3.6 20:18:56 25° ESE 20:19:16 25° ESE 20:23:48 10° NE
Cosmos 304 Rocket 3.7 20:17:21 10° NNW 20:22:08 79° ENE 20:24:31 30° SSE
Cosmos 1777 Rocket 3.9 20:17:27 10° NNW 20:22:46 83° ENE 20:25:46 27° SSE
Okean 2 Rocket 3.1 20:19:01 10° S 20:23:31 83° W 20:28:03 10° N
ATLAS 3B R/B 3.3 20:17:05 10° SW 20:24:08 66° NW 20:31:44 10° NE
COSMOS 2455 3.4 20:19:16 10° NNW 20:25:06 46° NE 20:27:59 27° ESE
Alouette 2 Rocket 4.3 20:18:13 10° N 20:25:33 74° ENE 20:28:14 28° SSE
SPOT 5 3.0 20:26:04 27° SSE 20:29:01 72° ENE 20:34:15 10° N
IRS-1A Rocket 4.4 20:28:48 27° SSE 20:32:07 70° ENE 20:37:58 10° N
Cosmos 405 Rocket 3.9 20:33:26 26° ENE 20:33:26 26° ENE 20:35:45 10° NNE
BlueWalker 3 2.2 20:33:30 10° WSW 20:37:18 68° NNW 20:40:37 13° NE
Dummy Sat-01 4.5 20:36:50 57° SE 20:37:21 67° E 20:41:02 10° N
Spot 2 Rocket 4.0 20:36:25 35° ESE 20:37:50 44° ENE 20:42:37 10° N
CZ-4C R/B 3.5 20:31:22 10° NNW 20:38:07 47° NE 20:42:37 26° ESE
Cosmos 2297 Rocket 2.2 20:32:40 10° NNW 20:38:19 69° ENE 20:40:35 37° SE
Cosmos 1535 Rocket 4.5 20:33:20 10° N 20:39:45 75° E 20:43:11 29° SSE
Terra 2.1 20:40:08 40° ESE 20:41:14 49° ENE 20:45:49 10° N
Cosmos 1656 3.6 20:36:40 10° SSW 20:42:15 89° WNW 20:47:48 10° NNE
Cosmos 1354 Rocket 4.2 20:38:02 10° NNW 20:43:21 71° WSW 20:45:57 31° S
Cosmos 1455 Rocket 3.4 20:46:46 43° E 20:46:46 43° E 20:50:49 10° NNE
Okean 1 Rocket 3.2 20:44:00 22° SSW 20:46:52 76° W 20:51:22 10° N
Iridium 4 Rocket 3.7 20:44:01 22° S 20:47:46 86° W 20:53:37 10° N
ATLAS 5 CENTAUR R/B 4.2 20:45:57 10° WNW 20:48:13 16° NNW 20:50:38 10° N
USA 245 3.8 20:46:54 42° SSE 20:48:34 72° ENE 20:53:01 10° N
Cosmos 332 Rocket 3.8 20:45:59 10° NNW 20:50:50 68° ENE 20:51:54 51° SE
Okean-O 3.7 20:48:36 19° SSW 20:51:23 40° W 20:55:32 10° NNW
Cosmos 2219 4.3 20:48:06 10° N 20:53:05 31° NE 20:54:33 27° E
Ariane Rocket 3.0 20:56:30 51° SE 20:57:37 67° ENE 21:02:37 10° N
Cosmos 1763 Rocket 3.3 20:57:45 44° S 20:59:15 69° ESE 21:04:22 10° NNE
Helios 1B 4.4 20:55:09 10° NNE 20:59:28 67° ESE 20:59:33 67° ESE
Genesis I 3.8 20:57:14 10° NW 21:00:42 42° WSW 21:00:43 42° WSW
Cosmos 1437 Rocket 3.1 20:56:53 10° N 21:00:22 53° NE 21:00:22 53° NE
Cosmos 44 3.6 20:58:46 10° SW 21:04:11 79° NW 21:09:33 10° NNE
Cosmos 2263 Rocket 3.5 21:00:11 10° N 21:04:51 26° NE 21:06:06 24° ENE
Okean O Rocket 4.3 21:03:58 10° SW 21:06:27 15° W 21:08:56 10° NW
ARGOS Delta rocket 4.2 21:08:36 54° ESE 21:09:25 60° ENE 21:14:48 10° N
Cosmos 990 Rocket 3.8 21:05:55 10° NNW 21:11:07 83° ENE 21:11:52 65° SE
Cosmos 2173 Rocket 4.4 21:10:06 10° N 21:16:11 44° ENE 21:17:01 42° E
Cosmos 1605 Rocket 4.2 21:10:06 10° NNW 21:16:29 71° W 21:19:09 36° SSW
Aureole 1 Rocket 4.1 21:14:26 10° NNW 21:15:56 26° N 21:15:56 26° N
Cosmos 540 Rocket 3.2 21:18:45 73° SE 21:18:59 75° ESE 21:24:06 10° NNE
Cosmos 1153 Rocket 4.4 21:18:15 10° N 21:24:35 82° E 21:25:55 58° SSE
MOS 1 Rocket 3.4 21:25:22 59° NNE 21:25:22 59° NNE 21:29:08 10° N
Cosmos 2058 3.6 21:23:27 10° N 21:26:27 46° NNE 21:26:27 46° NNE
Cosmos 468 Rocket 3.8 21:31:31 80° SSW 21:31:50 90° E 21:37:04 10° NNE
Cosmos 372 Rocket 4.3 21:27:06 10° NNW 21:32:08 51° ENE 21:32:08 51° ENE
ERS-1 Rocket 3.7 21:31:22 40° SW 21:32:26 47° W 21:37:16 10° NNW
SPOT 3 Rocket 3.7 21:35:46 59° SW 21:36:23 64° WSW 21:41:34 10° NNW
Cosmos 1802 Rocket 4.3 21:32:38 10° N 21:38:43 48° ENE 21:38:59 48° E
CENTAUR R/B 3.5 21:33:30 10° NW 21:41:39 62° NE 21:44:48 42° ESE
Cosmos 841 Rocket 4.4 21:43:35 36° NE 21:43:35 36° NE 21:46:48 10° NNE
Landsat 5 4.2 21:39:57 10° N 21:43:13 50° N 21:43:13 50° N
Cosmos 2016 Rocket 4.4 21:40:07 10° N 21:45:55 45° ENE 21:45:55 45° ENE
ATLAS CENTAUR R/B 2.6 21:42:42 10° NNW 21:45:04 36° NNW 21:45:04 36° NNW
USA 229 DEB 4.4 21:43:56 10° WSW 21:49:55 50° NW 21:56:32 10° NNE
USA 229 4.3 21:44:01 10° WSW 21:50:00 50° NW 21:56:38 10° NNE
Cosmos 1727 Rocket 4.1 21:49:08 54° SSW 21:50:36 75° W 21:56:52 10° N
Cosmos 2100 Rocket 3.8 21:47:23 10° N 21:53:47 86° E 21:54:16 78° SSE
Cosmos 1980 Rocket 2.6 21:55:14 51° NE 21:55:14 51° NE 21:59:34 10° NNE
Cosmos 2227 Rocket 2.4 21:48:24 10° NNW 21:53:59 59° WSW 21:54:10 58° WSW
SL-4 R/B 4.1 21:51:37 10° WNW 21:52:47 20° WNW 21:52:47 20° WNW
Cosmos 292 Rocket 4.2 21:53:02 10° NNW 21:56:52 58° NNW 21:56:52 58° NNW
Cosmos 1000 Rocket 4.3 22:01:36 81° SSW 22:01:55 86° W 22:08:06 10° N
Cosmos 1697 Rocket 3.3 22:00:33 33° WSW 22:02:51 52° WNW 22:08:25 10° NNE
Cosmos 1937 Rocket 3.7 21:59:06 10° NNW 22:03:46 69° N 22:03:46 69° N
Cosmos 2123 Rocket 4.0 22:05:46 68° ENE 22:05:46 68° ENE 22:11:45 10° NNE
COSMOS 2455 3.9 22:05:30 10° NW 22:10:52 34° WSW 22:11:08 34° WSW
ARIANE 5 R/B 3.9 22:17:17 38° N 22:17:17 38° N 22:20:09 10° N
BlueWalker 3 4.3 22:12:49 10° WNW 22:15:07 23° NW 22:15:07 23° NW
Cosmos 1898 Rocket 4.1 22:11:58 10° NNW 22:16:18 50° WNW 22:16:18 50° WNW
Terra 3.8 22:18:50 19° W 22:19:07 19° W 22:22:30 10° NW
Cosmos 2297 Rocket 4.1 22:17:58 10° WNW 22:21:44 19° W 22:22:24 18° WSW
Cosmos 2369 4.1 22:27:50 56° NNE 22:27:50 56° NNE 22:32:16 10° NNE
CZ-4C R/B 3.3 22:19:42 10° NW 22:26:55 54° WSW 22:27:43 53° SW
Meteor 2-8 Rocket 4.5 22:28:03 10° N 22:33:42 76° NNW 22:33:42 76° NNW
Cosmos 1725 Rocket 4.0 22:29:25 10° N 22:35:10 74° NW 22:35:10 74° NW
Cosmos 2233 Rocket 4.1 22:29:51 10° N 22:35:19 65° NE 22:35:19 65° NE
Cosmos 1459 Rocket 4.4 22:30:47 10° NNW 22:36:35 50° W 22:36:35 50° W
Cosmos 2219 4.1 22:32:01 10° NW 22:36:27 42° W 22:36:27 42° W
Cosmos 2061 Rocket 4.1 22:36:04 10° N 22:42:00 77° N 22:42:00 77° N
Cosmos 2360 Rocket 4.4 22:51:06 14° ENE 22:51:06 14° ENE 22:52:15 10° NE
Cosmos 2263 Rocket 3.0 22:43:39 10° NNW 22:47:47 44° WNW 22:47:47 44° WNW
Cosmos 2333 Rocket 4.3 23:03:47 16° ENE 23:03:47 16° ENE 23:05:14 10° NE
Cosmos 2322 Rocket 4.0 23:03:59 22° NE 23:03:59 22° NE 23:06:15 10° NE
NOSS 3-2 (A) 4.0 22:59:52 10° NW 23:07:20 72° WSW 23:07:20 72° WSW
SL-16 R/B 3.2 23:22:57 40° NNE 23:22:57 40° NNE 23:26:32 10° NNE
USA 238 DEB 4.1 23:24:56 10° NW 23:32:12 63° NE 23:32:57 60° ENE
USA 238 4.1 23:25:02 10° NW 23:32:18 62° NE 23:33:05 59° ENE
CENTAUR R/B 3.8 23:24:28 10° NW 23:31:56 43° WSW 23:31:56 43° WSW
Cosmos 1844 Rocket 3.6 23:28:13 10° NNW 23:32:08 45° N 23:32:08 45° N
Cosmos 1980 Rocket 4.1 23:36:55 20° WNW 23:38:29 23° NW 23:42:53 10° N
Timation 2 Rocket 4.4 23:42:32 10° NNW 23:48:19 62° NNE 23:48:19 62° NNE
